K7EK Weather Reports


Display with metric or nautical units.
time (UTC)temp
F
wind
direction
speed
MPH
gust
MPH
rain 1hr
in
rain 24hr
in
rain mn
in
humidity
%
barometer
mb
20260906101554 70 0 0.0 0.0 0.00 0.00 0.00 98 1012.7
20260906100051 70 0 0.0 0.0 0.00 0.00 0.00 97 1012.4
20260906094603 70 0 0.0 0.0 0.00 0.00 0.00 97 1012.4
20260906093054 70 0 0.0 0.0 0.00 0.00 0.00 96 1012.4
20260906091556 70 0 0.0 1.0 0.00 0.00 0.00 96 1012.3
20260906084558 71 0 0.0 0.0 0.00 0.00 0.00 96 1012.2
20260906083104 71 0 0.0 0.0 0.00 0.00 0.00 96 1012.1
20260906081558 71 0 0.0 0.0 0.00 0.00 0.00 95 1012.1
20260906080110 71 0 0.0 0.0 0.00 0.00 0.00 95 1012.1
20260906074607 71 0 0.0 0.0 0.00 0.00 0.00 95 1012.0
20260906073055 71 0 0.0 0.0 0.00 0.00 0.00 94 1012.1
20260906071608 72 0 0.0 0.0 0.00 0.00 0.00 94 1012.4
20260906070100 72 0 0.0 0.0 0.00 0.00 0.00 94 1012.5
20260906064553 72 0 0.0 0.0 0.00 0.00 0.00 93 1012.5
20260906063057 73 0 0.0 0.0 0.00 0.00 0.00 93 1012.4
20260906061558 73 0 0.0 0.0 0.00 0.00 0.00 93 1012.3
20260906060051 73 0 0.0 0.0 0.00 0.00 0.00 92 1012.4
20260906054557 73 0 0.0 2.0 0.00 0.00 0.00 91 1012.2
20260906053053 73 0 0.0 3.0 0.00 0.00 0.00 91 1012.2
20260906051603 74 0 0.0 2.0 0.00 0.00 0.00 89 1012.3
20260906050057 74 186 0.0 2.0 0.00 0.00 0.00 88 1012.5
20260906044552 75 0 1.0 4.0 0.00 0.00 0.00 86 1012.7
20260906043059 75 0 0.0 1.0 0.00 0.00 0.00 85 1012.3
20260906041556 75 184 0.0 1.0 0.00 0.00 0.00 86 1012.3
20260906040101 76 0 0.0 0.0 0.00 0.00 0.00 85 1012.4
20260906034553 76 0 0.0 0.0 0.00 0.00 0.00 85 1012.5
20260906033104 76 0 0.0 2.0 0.00 0.00 0.00 85 1012.3
20260906031554 76 0 0.0 1.0 0.00 0.00 0.00 85 1012.2
20260906030116 76 0 0.0 0.0 0.00 0.00 0.00 85 1012.4
20260906024625 76 0 0.0 0.0 0.00 0.00 0.00 85 1012.6
20260906023053 77 0 0.0 0.0 0.00 0.00 0.00 84 1012.4
20260906021606 78 0 0.0 4.0 0.00 0.00 0.00 83 1012.5
20260906020059 81 183 1.0 7.0 0.00 0.00 0.00 77 1012.5
20260906014602 83 223 3.0 12.0 0.00 0.00 0.00 72 1012.3
20260906013055 84 181 1.0 3.0 0.00 0.00 0.00 76 1011.3
20260906011553 85 0 0.0 0.0 0.00 0.00 0.00 76 1010.9
20260906010113 85 0 0.0 0.0 0.00 0.00 0.00 76 1010.8
20260906004600 87 151 0.0 1.0 0.00 0.00 0.00 72 1010.8
20260906003112 87 0 0.0 0.0 0.00 0.00 0.00 70 1010.9
20260906001554 88 0 0.0 1.0 0.00 0.00 0.00 69 1011.0
20260906000104 89 0 0.0 0.0 0.00 0.00 0.00 67 1011.5
20260905234606 90 0 0.0 1.0 0.00 0.00 0.00 64 1011.7
20260905233053 91 0 0.0 1.0 0.00 0.00 0.00 62 1011.6
20260905231555 92 133 0.0 2.0 0.00 0.00 0.00 59 1011.6
20260905230100 92 133 0.0 2.0 0.00 0.00 0.00 58 1011.1
20260905224556 93 0 0.0 4.0 0.00 0.00 0.00 57 1011.1
20260905223055 94 133 0.0 2.0 0.00 0.00 0.00 56 1011.1
20260905221554 94 132 2.0 10.0 0.00 0.00 0.00 55 1011.2
20260905220100 94 134 0.0 3.0 0.00 0.00 0.00 56 1011.2
20260905214556 95 141 2.0 7.0 0.00 0.00 0.00 53 1011.4
20260905213105 95 184 2.0 6.0 0.00 0.00 0.00 53 1011.3
20260905211556 96 134 2.0 5.0 0.00 0.00 0.00 53 1011.3
20260905204603 96 138 1.0 11.0 0.00 0.00 0.00 53 1011.6
20260905203057 96 0 1.0 6.0 0.00 0.00 0.00 52 1011.7
20260905201556 96 165 1.0 7.0 0.00 0.00 0.00 54 1012.0
20260905200100 94 151 0.0 8.0 0.00 0.00 0.00 56 1012.0
20260905194557 95 250 2.0 7.0 0.00 0.00 0.00 55 1012.3
20260905193106 95 153 0.0 4.0 0.00 0.00 0.00 56 1012.5
20260905191603 94 220 0.0 6.0 0.00 0.00 0.00 58 1012.5
20260905184609 95 0 1.0 3.0 0.00 0.00 0.00 58 1013.0
20260905183056 93 161 0.0 7.0 0.00 0.00 0.00 59 1013.1
20260905181601 94 168 0.0 4.0 0.00 0.00 0.00 56 1013.2
20260905180107 92 160 0.0 5.0 0.00 0.00 0.00 58 1013.6
20260905174556 93 178 1.0 4.0 0.00 0.00 0.00 59 1013.7
20260905173057 91 0 1.0 4.0 0.00 0.00 0.00 59 1013.9
20260905171552 91 167 0.0 4.0 0.00 0.00 0.00 61 1014.0
20260905170057 90 0 1.0 4.0 0.00 0.00 0.00 64 1014.4
20260905164556 90 165 0.0 3.0 0.00 0.00 0.00 63 1014.4
20260905163102 89 142 0.0 4.0 0.00 0.00 0.00 64 1014.8
20260905161600 87 163 1.0 6.0 0.00 0.00 0.00 66 1014.6
20260905160059 86 157 1.0 5.0 0.00 0.00 0.00 68 1014.8
20260905154605 86 143 2.0 6.0 0.00 0.00 0.00 72 1014.8
20260905153052 84 158 2.0 6.0 0.00 0.00 0.00 74 1015.0
20260905151602 84 155 1.0 5.0 0.00 0.00 0.00 74 1015.0
20260905150100 83 143 1.0 9.0 0.00 0.00 0.00 76 1014.9
20260905144602 82 154 1.0 8.0 0.00 0.00 0.00 77 1015.0
20260905143108 83 119 1.0 8.0 0.00 0.00 0.00 77 1015.0
20260905141603 83 0 0.0 8.0 0.00 0.00 0.00 78 1015.3
20260905140058 81 153 1.0 8.0 0.00 0.00 0.00 80 1015.2
20260905134557 81 153 1.0 7.0 0.00 0.00 0.00 83 1015.2
20260905133059 82 155 0.0 2.0 0.00 0.00 0.00 82 1015.0
20260905131600 79 153 1.0 2.0 0.00 0.00 0.00 88 1015.0
20260905130057 78 160 0.0 2.0 0.00 0.00 0.00 88 1015.1
20260905124601 78 151 0.0 2.0 0.00 0.00 0.00 89 1015.2
20260905123110 77 149 0.0 4.0 0.00 0.00 0.00 91 1015.1
20260905121555 76 0 0.0 0.0 0.00 0.00 0.00 95 1014.4
20260905120107 74 0 0.0 0.0 0.00 0.00 0.00 95 1014.3
20260905114558 74 0 0.0 0.0 0.00 0.00 0.00 95 1014.2
20260905113053 74 0 0.0 0.0 0.00 0.00 0.00 94 1014.1
20260905111630 74 0 0.0 0.0 0.00 0.00 0.00 93 1013.9
20260905110100 74 0 0.0 0.0 0.00 0.00 0.00 94 1013.5
20260905104558 74 0 0.0 0.0 0.00 0.00 0.00 93 1013.5
20260905103054 75 0 0.0 0.0 0.00 0.00 0.00 92 1013.4